Weather in Oxnard

United States     34°11′32″N   119°10′42″W
temp.,
°C
wind,
m/s
gust,
m/s
humid.,
%
clouds,
%
prec.,
mm/h
press.,
hPa
HPBL,
m
16 may, sun
sun1623:00+15wsw3374100 0.0 1013826
02:00+14s2276100 0.1 1013531
05:00+14ssw1277100 0.2 1014431
08:00+14sw1178100 0.1 1015335
11:00+15ssw327127 0.1 1015599
14:00+15sw437616 0.0 1016485
17:00+15wsw43773 0.0 1015475
20:00+15w45782 0.0 1015439
17 may, mon
mon1723:00+14wsw338099 0.0 1016621
02:00+15sse2277100 0.1 1015536
05:00+15s127582 0.1 1016390
08:00+15sw117168 0.0 1016594
11:00+16wsw43736 0.0 1017520
14:00+16wsw56744 0.0 1016496
17:00+16wsw66756 0.0 1015468
20:00+16sw23745 0.0 1014364
18 may, tue
tue1823:00+16s23746 0.0 1015371
02:00+15se22790 0.0 1014162
05:00+15sw33820 0.0 1014264
08:00+15ssw22780 0.0 1015298
11:00+17sw43730 0.0 1014405
14:00+17sw33727 0.0 1012351
17:00+19s43660 0.0 1010268
20:00+19sse34640 0.0 1010139
19 may, wed
wed1923:00+16ese34710 0.0 1012257
02:00+16s337467 0.0 1011172
05:00+15sse22760 0.0 1011141
08:00+16se23710 0.0 1012234
11:00+17sw44630 0.0 1012369
14:00+18sw44531 0.0 1010370
17:00+19wsw45580 0.0 1008340
20:00+19w24580 0.0 1008214
20 may, thu
thu2023:00+17sw23620 0.0 1010174
02:00+15sse13660 0.0 1010306
05:00+15se22680 0.0 1010226
08:00+15se11650 0.0 1011308
11:00+15sw54650 0.0 1012532
14:00+18ssw44430 0.0 1010548
17:00+20w12470 0.0 1008403
20:00+18w810460 0.0 1008248